User: anonymous   Login
Location: Newark
(43.0000°N, 1.6781°W)
Time: 12:59:21
(UTC+00:00)
Language:

MOZHAYETS 4 - Orbit

View from above orbital plane
View from above orbital plane
View from above satellite
View from above satellite

Ground track
Ground track

The orbit data is extracted from the following two-line orbital elements,

1 27939U 03042A   22338.04165738  .00000666  00000-0  12590-3 0  9999
2 27939  98.2142 118.9961 0013273  38.0748 322.1369 14.67642389 25912
Epoch (UTC): 04 December 2022 00:59:59
Eccentricity: 0.0013273
inclination: 98.2142°
perigee height: 659 km
apogee height: 678 km
right ascension of ascending node: 118.9961°
argument of perigee: 38.0748°
revolutions per day: 14.67642389
mean anomaly at epoch: 322.1369°
orbit number at epoch: 2591

The dashed part of the orbit path shows where the satellite is in the earth's shadow,  

DLR